Time,TemperatureF,DewpointF,PressureIn,WindDirection,WindDirectionDegrees,WindSpeedMPH,WindSpeedGustMPH,Humidity,HourlyPrecipIn,Conditions,Clouds,dailyrainin,SoftwareType,DateUTC
2013-05-28 00:01:00,78.5,25.7,29.84,WNW,293,5.6,6.9,15,0.00,,,0.00,WUHU216HW,2013-05-28 07:01:00,
2013-05-28 00:06:00,77.0,24.7,29.84,West,270,5.4,7.6,15,0.00,,,0.00,WUHU216HW,2013-05-28 07:06:00,
2013-05-28 00:11:00,75.4,25.0,29.84,West,270,4.7,8.7,16,0.00,,,0.00,WUHU216HW,2013-05-28 07:11:00,
2013-05-28 00:16:00,74.5,26.0,29.84,NW,315,5.4,8.7,17,0.00,,,0.00,WUHU216HW,2013-05-28 07:16:00,
2013-05-28 00:21:00,73.8,25.4,29.84,NW,315,9.2,9.2,17,0.00,,,0.00,WUHU216HW,2013-05-28 07:21:00,
2013-05-28 00:26:00,74.0,27.2,29.84,NW,315,6.9,9.2,18,0.00,,,0.00,WUHU216HW,2013-05-28 07:26:00,
2013-05-28 00:31:00,74.3,27.5,29.84,WNW,293,5.4,9.2,18,0.00,,,0.00,WUHU216HW,2013-05-28 07:31:00,
2013-05-28 00:36:00,74.5,27.6,29.84,NW,315,5.6,8.5,18,0.00,,,0.00,WUHU216HW,2013-05-28 07:36:00,
2013-05-28 00:41:00,74.9,27.9,29.84,WNW,293,5.1,8.1,18,0.00,,,0.00,WUHU216HW,2013-05-28 07:41:00,
2013-05-28 00:46:00,74.9,27.9,29.84,NW,315,5.8,7.2,18,0.00,,,0.00,WUHU216HW,2013-05-28 07:46:00,
2013-05-28 00:51:00,74.7,26.1,29.84,NW,315,4.5,6.9,17,0.00,,,0.00,WUHU216HW,2013-05-28 07:51:00,
2013-05-28 00:56:00,74.7,26.1,29.84,WNW,293,5.8,6.9,17,0.00,,,0.00,WUHU216HW,2013-05-28 07:56:00,
2013-05-28 01:01:00,74.5,26.0,29.84,WNW,293,3.8,6.3,17,0.00,,,0.00,WUHU216HW,2013-05-28 08:01:00,
2013-05-28 01:06:00,74.5,24.3,29.83,WNW,293,4.0,5.8,16,0.00,,,0.00,WUHU216HW,2013-05-28 08:06:00,
2013-05-28 01:11:00,74.3,24.2,29.83,NW,315,2.2,5.6,16,0.00,,,0.00,WUHU216HW,2013-05-28 08:11:00,
2013-05-28 01:16:00,74.2,24.0,29.83,SE,135,1.1,5.4,16,0.00,,,0.00,WUHU216HW,2013-05-28 08:16:00,
2013-05-28 01:21:00,73.6,23.7,29.83,ESE,113,2.5,2.5,16,0.00,,,0.00,WUHU216HW,2013-05-28 08:21:00,
2013-05-28 01:26:00,72.9,24.7,29.83,ENE,68,2.5,3.4,17,0.00,,,0.00,WUHU216HW,2013-05-28 08:26:00,
2013-05-28 01:31:00,72.4,24.2,29.83,ENE,68,4.0,4.0,17,0.00,,,0.00,WUHU216HW,2013-05-28 08:31:00,
2013-05-28 01:36:00,71.8,23.8,29.83,ESE,113,1.8,4.9,17,0.00,,,0.00,WUHU216HW,2013-05-28 08:36:00,
2013-05-28 01:41:00,71.5,25.0,29.83,ESE,113,2.9,4.9,18,0.00,,,0.00,WUHU216HW,2013-05-28 08:41:00,
2013-05-28 01:46:00,71.1,24.8,29.83,ENE,68,0.4,3.4,18,0.00,,,0.00,WUHU216HW,2013-05-28 08:46:00,
2013-05-28 01:51:00,70.7,24.5,29.83,NNE,23,2.7,3.4,18,0.00,,,0.00,WUHU216HW,2013-05-28 08:51:00,
2013-05-28 01:56:00,70.9,26.3,29.83,NE,45,2.5,3.4,19,0.00,,,0.00,WUHU216HW,2013-05-28 08:56:00,
2013-05-28 02:01:00,70.9,24.7,29.83,ENE,68,1.8,3.1,18,0.00,,,0.00,WUHU216HW,2013-05-28 09:01:00,
2013-05-28 02:06:00,70.9,24.7,29.83,ENE,68,1.6,3.1,18,0.00,,,0.00,WUHU216HW,2013-05-28 09:06:00,
2013-05-28 02:11:00,70.7,24.5,29.82,East,90,4.7,6.3,18,0.00,,,0.00,WUHU216HW,2013-05-28 09:11:00,
2013-05-28 02:16:00,70.6,25.9,29.82,East,90,3.4,6.3,19,0.00,,,0.00,WUHU216HW,2013-05-28 09:16:00,
2013-05-28 02:21:00,70.2,25.7,29.82,ESE,113,2.9,5.1,19,0.00,,,0.00,WUHU216HW,2013-05-28 09:21:00,
2013-05-28 02:26:00,69.8,25.4,29.82,ESE,113,4.7,4.7,19,0.00,,,0.00,WUHU216HW,2013-05-28 09:26:00,
2013-05-28 02:31:00,69.7,25.2,29.82,East,90,4.7,6.0,19,0.00,,,0.00,WUHU216HW,2013-05-28 09:31:00,
2013-05-28 02:36:00,69.5,25.1,29.82,East,90,5.4,6.5,19,0.00,,,0.00,WUHU216HW,2013-05-28 09:36:00,
2013-05-28 02:41:00,69.5,25.1,29.82,East,90,3.8,6.5,19,0.00,,,0.00,WUHU216HW,2013-05-28 09:41:00,
2013-05-28 02:46:00,69.3,24.9,29.82,SE,135,2.5,6.0,19,0.00,,,0.00,WUHU216HW,2013-05-28 09:46:00,
2013-05-28 02:51:00,69.1,24.9,29.81,East,90,4.0,5.6,19,0.00,,,0.00,WUHU216HW,2013-05-28 09:51:00,
2013-05-28 02:56:00,69.1,24.9,29.81,East,90,5.6,6.3,19,0.00,,,0.00,WUHU216HW,2013-05-28 09:56:00,
2013-05-28 03:01:00,69.1,24.9,29.81,ENE,68,4.5,6.3,19,0.00,,,0.00,WUHU216HW,2013-05-28 10:01:00,
2013-05-28 03:06:00,68.9,24.7,29.81,ENE,68,2.9,6.3,19,0.00,,,0.00,WUHU216HW,2013-05-28 10:06:00,
2013-05-28 03:11:00,68.8,24.6,29.81,ESE,113,5.8,6.9,19,0.00,,,0.00,WUHU216HW,2013-05-28 10:11:00,
2013-05-28 03:16:00,68.8,26.1,29.81,East,90,6.3,6.9,20,0.00,,,0.00,WUHU216HW,2013-05-28 10:16:00,
2013-05-28 03:21:00,68.8,26.1,29.81,East,90,4.7,6.7,20,0.00,,,0.00,WUHU216HW,2013-05-28 10:21:00,
2013-05-28 03:25:00,68.8,27.1,29.80,ESE,113,3.4,6.7,21,0.00,,,0.00,WUHU216HW,2013-05-28 10:25:00,
2013-05-28 03:31:00,68.6,26.0,29.80,ENE,68,2.7,5.4,20,0.00,,,0.00,WUHU216HW,2013-05-28 10:31:00,
2013-05-28 03:35:00,68.4,25.8,29.80,NNE,23,2.0,3.4,20,0.00,,,0.00,WUHU216HW,2013-05-28 10:35:00,
2013-05-28 03:40:00,68.2,25.8,29.80,NE,45,1.6,2.7,20,0.00,,,0.00,WUHU216HW,2013-05-28 10:40:00,
2013-05-28 03:45:00,68.2,25.8,29.80,NE,45,1.8,2.5,20,0.00,,,0.00,WUHU216HW,2013-05-28 10:45:00,
2013-05-28 03:50:00,68.2,25.8,29.80,ENE,68,1.3,2.2,20,0.00,,,0.00,WUHU216HW,2013-05-28 10:50:00,
2013-05-28 03:55:00,68.0,25.6,29.80,ENE,68,1.3,2.2,20,0.00,,,0.00,WUHU216HW,2013-05-28 10:55:00,
2013-05-28 04:00:00,68.0,25.6,29.80,East,90,2.5,3.4,20,0.00,,,0.00,WUHU216HW,2013-05-28 11:00:00,
2013-05-28 04:05:00,67.9,23.8,29.80,ENE,68,2.2,3.4,19,0.00,,,0.00,WUHU216HW,2013-05-28 11:05:00,
2013-05-28 04:10:00,67.7,23.7,29.80,East,90,1.8,3.4,19,0.00,,,0.00,WUHU216HW,2013-05-28 11:10:00,
2013-05-28 04:15:00,67.7,25.2,29.80,ENE,68,1.8,3.4,20,0.00,,,0.00,WUHU216HW,2013-05-28 11:15:00,
2013-05-28 04:20:00,67.7,25.2,29.79,ENE,68,2.0,3.1,20,0.00,,,0.00,WUHU216HW,2013-05-28 11:20:00,
2013-05-28 04:25:00,67.7,25.2,29.79,ENE,68,1.8,2.5,20,0.00,,,0.00,WUHU216HW,2013-05-28 11:25:00,
2013-05-28 04:30:00,67.9,25.4,29.80,NE,45,2.2,2.9,20,0.00,,,0.00,WUHU216HW,2013-05-28 11:30:00,
2013-05-28 04:35:00,68.0,25.6,29.79,ENE,68,1.8,2.9,20,0.00,,,0.00,WUHU216HW,2013-05-28 11:35:00,
2013-05-28 04:40:00,68.2,24.1,29.79,ENE,68,0.9,2.9,19,0.00,,,0.00,WUHU216HW,2013-05-28 11:40:00,
2013-05-28 04:45:00,68.0,23.9,29.79,ENE,68,0.0,2.0,19,0.00,,,0.00,WUHU216HW,2013-05-28 11:45:00,
2013-05-28 04:50:00,67.9,25.4,29.79,NW,315,1.8,4.0,20,0.00,,,0.00,WUHU216HW,2013-05-28 11:50:00,
2013-05-28 04:55:00,67.5,26.1,29.80,WNW,293,2.5,4.0,21,0.00,,,0.00,WUHU216HW,2013-05-28 11:55:00,
2013-05-28 05:00:00,67.1,25.7,29.80,NW,315,2.5,3.8,21,0.00,,,0.00,WUHU216HW,2013-05-28 12:00:00,
2013-05-28 05:05:00,66.8,25.5,29.80,NNW,338,4.0,4.0,21,0.00,,,0.00,WUHU216HW,2013-05-28 12:05:00,
2013-05-28 05:10:00,66.8,25.5,29.79,North,0,2.0,4.0,21,0.00,,,0.00,WUHU216HW,2013-05-28 12:10:00,
2013-05-28 05:15:00,67.0,25.6,29.79,NNE,23,1.8,4.0,21,0.00,,,0.00,WUHU216HW,2013-05-28 12:15:00,
2013-05-28 05:20:00,67.0,25.6,29.79,NE,45,1.1,3.1,21,0.00,,,0.00,WUHU216HW,2013-05-28 12:20:00,
2013-05-28 05:25:00,67.0,25.6,29.79,South,180,0.0,1.8,21,0.00,,,0.00,WUHU216HW,2013-05-28 12:25:00,
2013-05-28 05:30:00,66.8,25.5,29.80,SE,135,2.2,3.4,21,0.00,,,0.00,WUHU216HW,2013-05-28 12:30:00,
2013-05-28 05:35:00,66.4,25.1,29.80,SE,135,2.0,3.4,21,0.00,,,0.00,WUHU216HW,2013-05-28 12:35:00,
2013-05-28 05:40:00,65.9,24.7,29.80,SE,135,2.5,3.8,21,0.00,,,0.00,WUHU216HW,2013-05-28 12:40:00,
2013-05-28 05:45:00,65.5,25.4,29.80,ESE,113,2.2,3.8,22,0.00,,,0.00,WUHU216HW,2013-05-28 12:45:00,
2013-05-28 05:50:00,65.0,24.9,29.80,East,90,2.5,4.9,22,0.00,,,0.00,WUHU216HW,2013-05-28 12:50:00,
2013-05-28 05:55:00,64.8,24.8,29.80,ESE,113,3.6,4.9,22,0.00,,,0.00,WUHU216HW,2013-05-28 12:55:00,
2013-05-28 06:00:00,64.4,24.5,29.79,East,90,4.3,5.6,22,0.00,,,0.00,WUHU216HW,2013-05-28 13:00:00,
2013-05-28 06:05:00,64.4,24.5,29.80,East,90,4.9,6.5,22,0.00,,,0.00,WUHU216HW,2013-05-28 13:05:00,
2013-05-28 06:10:00,64.3,24.3,29.80,East,90,5.1,7.4,22,0.00,,,0.00,WUHU216HW,2013-05-28 13:10:00,
2013-05-28 06:15:00,64.4,24.5,29.80,ESE,113,5.6,8.1,22,0.00,,,0.00,WUHU216HW,2013-05-28 13:15:00,
2013-05-28 06:20:00,64.4,24.5,29.80,ENE,68,6.0,8.1,22,0.00,,,0.00,WUHU216HW,2013-05-28 13:20:00,
2013-05-28 06:25:00,65.0,24.9,29.80,ESE,113,6.3,7.2,22,0.00,,,0.00,WUHU216HW,2013-05-28 13:25:00,
2013-05-28 06:30:00,65.3,25.2,29.80,East,90,4.7,6.9,22,0.00,,,0.00,WUHU216HW,2013-05-28 13:30:00,
2013-05-28 06:35:00,65.9,25.7,29.80,ENE,68,5.6,6.3,22,0.00,,,0.00,WUHU216HW,2013-05-28 13:35:00,
2013-05-28 06:40:00,66.2,25.9,29.80,ENE,68,4.7,6.0,22,0.00,,,0.00,WUHU216HW,2013-05-28 13:40:00,
2013-05-28 06:45:00,66.8,25.5,29.81,East,90,4.0,6.9,21,0.00,,,0.00,WUHU216HW,2013-05-28 13:45:00,
2013-05-28 06:50:00,67.1,25.7,29.81,East,90,3.4,6.9,21,0.00,,,0.00,WUHU216HW,2013-05-28 13:50:00,
2013-05-28 06:55:00,67.3,25.9,29.81,East,90,4.0,4.3,21,0.00,,,0.00,WUHU216HW,2013-05-28 13:55:00,
2013-05-28 07:00:00,67.5,26.1,29.81,ESE,113,4.5,4.5,21,0.00,,,0.00,WUHU216HW,2013-05-28 14:00:00,
2013-05-28 07:05:00,67.9,26.4,29.81,ESE,113,5.4,7.2,21,0.00,,,0.00,WUHU216HW,2013-05-28 14:05:00,
2013-05-28 07:10:00,68.0,26.6,29.80,East,90,6.3,7.2,21,0.00,,,0.00,WUHU216HW,2013-05-28 14:10:00,
2013-05-28 07:15:00,68.4,26.8,29.80,East,90,4.0,6.3,21,0.00,,,0.00,WUHU216HW,2013-05-28 14:15:00,
2013-05-28 07:20:00,68.8,27.1,29.81,SE,135,3.4,6.5,21,0.00,,,0.00,WUHU216HW,2013-05-28 14:20:00,
2013-05-28 07:25:00,68.9,27.3,29.81,East,90,4.0,6.5,21,0.00,,,0.00,WUHU216HW,2013-05-28 14:25:00,
2013-05-28 07:30:00,69.3,27.5,29.81,SE,135,5.6,6.3,21,0.00,,,0.00,WUHU216HW,2013-05-28 14:30:00,
2013-05-28 07:35:00,69.7,27.9,29.81,ESE,113,3.4,6.9,21,0.00,,,0.00,WUHU216HW,2013-05-28 14:35:00,
2013-05-28 07:40:00,70.0,28.2,29.81,ESE,113,3.4,7.2,21,0.00,,,0.00,WUHU216HW,2013-05-28 14:40:00,
2013-05-28 07:45:00,70.4,28.4,29.81,ENE,68,6.9,7.2,21,0.00,,,0.00,WUHU216HW,2013-05-28 14:45:00,
2013-05-28 07:50:00,70.7,27.7,29.81,ESE,113,4.5,6.9,20,0.00,,,0.00,WUHU216HW,2013-05-28 14:50:00,
2013-05-28 07:55:00,70.9,26.3,29.81,ESE,113,4.3,7.6,19,0.00,,,0.00,WUHU216HW,2013-05-28 14:55:00,
2013-05-28 08:00:00,71.5,26.6,29.82,ESE,113,6.3,7.6,19,0.00,,,0.00,WUHU216HW,2013-05-28 15:00:00,
2013-05-28 08:05:00,71.6,26.8,29.82,SSE,158,5.8,7.6,19,0.00,,,0.00,WUHU216HW,2013-05-28 15:05:00,
2013-05-28 08:10:00,72.0,27.2,29.82,SE,135,5.1,6.9,19,0.00,,,0.00,WUHU216HW,2013-05-28 15:10:00,
2013-05-28 08:15:00,72.5,27.6,29.82,ESE,113,6.9,8.3,19,0.00,,,0.00,WUHU216HW,2013-05-28 15:15:00,
2013-05-28 08:20:00,73.1,26.5,29.82,SE,135,6.9,8.3,18,0.00,,,0.00,WUHU216HW,2013-05-28 15:20:00,
2013-05-28 08:25:00,73.4,26.8,29.82,SSE,158,4.7,8.3,18,0.00,,,0.00,WUHU216HW,2013-05-28 15:25:00,
2013-05-28 08:30:00,74.0,27.2,29.82,SE,135,3.6,7.8,18,0.00,,,0.00,WUHU216HW,2013-05-28 15:30:00,
2013-05-28 08:35:00,74.2,27.4,29.82,SE,135,5.4,7.8,18,0.00,,,0.00,WUHU216HW,2013-05-28 15:35:00,
2013-05-28 08:40:00,74.5,27.6,29.82,SE,135,6.3,6.9,18,0.00,,,0.00,WUHU216HW,2013-05-28 15:40:00,
2013-05-28 08:45:00,75.1,26.4,29.82,SE,135,4.9,6.9,17,0.00,,,0.00,WUHU216HW,2013-05-28 15:45:00,
2013-05-28 08:50:00,75.6,26.8,29.83,ESE,113,4.3,7.4,17,0.00,,,0.00,WUHU216HW,2013-05-28 15:50:00,
2013-05-28 08:55:00,76.3,27.4,29.83,ESE,113,4.9,7.8,17,0.00,,,0.00,WUHU216HW,2013-05-28 15:55:00,
2013-05-28 09:00:00,76.9,26.2,29.82,ESE,113,5.4,7.8,16,0.00,,,0.00,WUHU216HW,2013-05-28 16:00:00,
2013-05-28 09:05:00,77.6,26.7,29.82,SE,135,7.8,9.8,16,0.00,,,0.00,WUHU216HW,2013-05-28 16:05:00,
2013-05-28 09:10:00,78.1,27.2,29.82,ESE,113,5.8,9.8,16,0.00,,,0.00,WUHU216HW,2013-05-28 16:10:00,
2013-05-28 09:15:00,78.3,27.3,29.82,ESE,113,7.6,7.8,16,0.00,,,0.00,WUHU216HW,2013-05-28 16:15:00,
2013-05-28 09:20:00,78.7,25.9,29.81,ESE,113,1.8,7.6,15,0.00,,,0.00,WUHU216HW,2013-05-28 16:20:00,
2013-05-28 09:25:00,79.2,26.3,29.81,ESE,113,4.7,8.1,15,0.00,,,0.00,WUHU216HW,2013-05-28 16:25:00,
2013-05-28 09:30:00,79.6,26.7,29.81,SE,135,9.2,11.6,15,0.00,,,0.00,WUHU216HW,2013-05-28 16:30:00,
2013-05-28 09:35:00,80.1,27.1,29.81,ESE,113,4.9,11.6,15,0.00,,,0.00,WUHU216HW,2013-05-28 16:35:00,
2013-05-28 09:40:00,80.6,25.8,29.80,ENE,68,3.6,10.5,14,0.00,,,0.00,WUHU216HW,2013-05-28 16:40:00,
2013-05-28 09:45:00,81.4,24.8,29.80,ENE,68,8.3,10.5,13,0.00,,,0.00,WUHU216HW,2013-05-28 16:45:00,
2013-05-28 09:50:00,81.7,25.0,29.79,ESE,113,3.4,12.1,13,0.00,,,0.00,WUHU216HW,2013-05-28 16:50:00,
2013-05-28 09:55:00,82.4,25.6,29.79,South,180,3.6,12.1,13,0.00,,,0.00,WUHU216HW,2013-05-28 16:55:00,
2013-05-28 10:00:00,82.8,25.8,29.80,SE,135,6.0,8.5,13,0.00,,,0.00,WUHU216HW,2013-05-28 17:00:00,
2013-05-28 10:05:00,82.8,24.1,29.80,SE,135,4.3,6.9,12,0.00,,,0.00,WUHU216HW,2013-05-28 17:05:00,
2013-05-28 10:10:00,83.2,24.4,29.80,ESE,113,4.9,8.5,12,0.00,,,0.00,WUHU216HW,2013-05-28 17:10:00,
2013-05-28 10:15:00,83.7,24.9,29.80,SSE,158,1.1,8.5,12,0.00,,,0.00,WUHU216HW,2013-05-28 17:15:00,
2013-05-28 10:20:00,83.9,24.9,29.80,SE,135,2.9,7.6,12,0.00,,,0.00,WUHU216HW,2013-05-28 17:20:00,
2013-05-28 10:25:00,84.2,25.2,29.80,SE,135,4.0,7.8,12,0.00,,,0.00,WUHU216HW,2013-05-28 17:25:00,
2013-05-28 10:30:00,84.8,25.7,29.80,SE,135,6.9,9.8,12,0.00,,,0.00,WUHU216HW,2013-05-28 17:30:00,
2013-05-28 10:35:00,85.9,24.8,29.80,SSE,158,5.6,9.8,11,0.00,,,0.00,WUHU216HW,2013-05-28 17:35:00,
2013-05-28 10:40:00,86.9,25.7,29.80,East,90,6.9,9.2,11,0.00,,,0.00,WUHU216HW,2013-05-28 17:40:00,
2013-05-28 10:45:00,88.9,27.2,29.80,SSE,158,1.3,9.2,11,0.00,,,0.00,WUHU216HW,2013-05-28 17:45:00,
2013-05-28 10:50:00,90.7,26.8,29.80,ESE,113,3.1,6.9,10,0.00,,,0.00,WUHU216HW,2013-05-28 17:50:00,
2013-05-28 10:55:00,92.3,28.0,29.80,SSW,203,7.4,7.4,10,0.00,,,0.00,WUHU216HW,2013-05-28 17:55:00,
2013-05-28 11:00:00,92.2,27.9,29.80,SSE,158,3.1,7.4,8,0.00,,,0.00,WUHU216HW,2013-05-28 18:00:00,
2013-05-28 11:05:00,92.3,28.0,29.79,South,180,8.5,8.7,8,0.00,,,0.00,WUHU216HW,2013-05-28 18:05:00,
2013-05-28 11:10:00,91.8,27.6,29.78,SSW,203,4.7,10.5,8,0.00,,,0.00,WUHU216HW,2013-05-28 18:10:00,
2013-05-28 11:15:00,90.7,26.8,29.78,WSW,248,10.3,10.5,8,0.00,,,0.00,WUHU216HW,2013-05-28 18:15:00,
2013-05-28 11:20:00,90.2,26.4,29.77,WSW,248,4.7,10.3,8,0.00,,,0.00,WUHU216HW,2013-05-28 18:20:00,
2013-05-28 11:25:00,89.5,25.8,29.77,SSE,158,8.1,10.3,8,0.00,,,0.00,WUHU216HW,2013-05-28 18:25:00,
2013-05-28 11:30:00,90.0,26.2,29.78,North,0,0.9,8.1,8,0.00,,,0.00,WUHU216HW,2013-05-28 18:30:00,
2013-05-28 11:35:00,90.4,26.5,29.78,West,270,4.3,8.1,8,0.00,,,0.00,WUHU216HW,2013-05-28 18:35:00,
2013-05-28 11:40:00,89.8,26.1,29.78,SW,225,8.3,10.5,8,0.00,,,0.00,WUHU216HW,2013-05-28 18:40:00,
2013-05-28 11:45:00,89.1,25.6,29.79,WNW,293,7.2,10.5,8,0.00,,,0.00,WUHU216HW,2013-05-28 18:45:00,
2013-05-28 11:50:00,88.4,25.0,29.79,West,270,2.7,10.7,8,0.00,,,0.00,WUHU216HW,2013-05-28 18:50:00,
2013-05-28 11:55:00,88.2,24.9,29.79,NNE,23,6.0,10.7,8,0.00,,,0.00,WUHU216HW,2013-05-28 18:55:00,
2013-05-28 12:00:00,88.7,25.3,29.79,SW,225,3.8,8.7,8,0.00,,,0.00,WUHU216HW,2013-05-28 19:00:00,
2013-05-28 12:05:00,89.6,25.9,29.79,ESE,113,4.0,7.6,8,0.00,,,0.00,WUHU216HW,2013-05-28 19:05:00,
2013-05-28 12:10:00,91.1,27.1,29.78,SE,135,2.0,4.9,8,0.00,,,0.00,WUHU216HW,2013-05-28 19:10:00,
2013-05-28 12:15:00,92.0,27.7,29.77,North,0,13.2,13.2,7,0.00,,,0.00,WUHU216HW,2013-05-28 19:15:00,
2013-05-28 12:20:00,91.4,27.4,29.78,NNW,338,6.9,17.9,6,0.00,,,0.00,WUHU216HW,2013-05-28 19:20:00,
2013-05-28 12:25:00,91.3,27.2,29.77,NNW,338,2.5,17.9,7,0.00,,,0.00,WUHU216HW,2013-05-28 19:25:00,
2013-05-28 12:30:00,91.4,27.4,29.77,South,180,7.4,12.1,7,0.00,,,0.00,WUHU216HW,2013-05-28 19:30:00,
2013-05-28 12:35:00,92.9,28.4,29.76,SE,135,4.7,8.5,7,0.00,,,0.00,WUHU216HW,2013-05-28 19:35:00,
2013-05-28 12:40:00,93.4,28.8,29.75,SSW,203,3.1,7.4,7,0.00,,,0.00,WUHU216HW,2013-05-28 19:40:00,
2013-05-28 12:45:00,93.1,28.5,29.75,SE,135,2.0,7.8,6,0.00,,,0.00,WUHU216HW,2013-05-28 19:45:00,
2013-05-28 12:50:00,93.6,28.9,29.75,SW,225,5.6,7.8,7,0.00,,,0.00,WUHU216HW,2013-05-28 19:50:00,
2013-05-28 12:55:00,94.0,29.2,29.74,WSW,248,8.5,8.5,6,0.00,,,0.00,WUHU216HW,2013-05-28 19:55:00,
2013-05-28 13:00:00,95.2,30.2,29.74,SW,225,8.5,8.5,6,0.00,,,0.00,WUHU216HW,2013-05-28 20:00:00,
2013-05-28 13:05:00,95.8,30.6,29.73,SW,225,4.7,9.2,6,0.00,,,0.00,WUHU216HW,2013-05-28 20:05:00,
2013-05-28 13:10:00,95.6,30.4,29.73,SE,135,2.9,10.5,6,0.00,,,0.00,WUHU216HW,2013-05-28 20:10:00,
2013-05-28 13:15:00,95.8,30.6,29.73,SW,225,6.7,10.5,6,0.00,,,0.00,WUHU216HW,2013-05-28 20:15:00,
2013-05-28 13:20:00,95.6,30.4,29.72,SSE,158,4.7,10.5,6,0.00,,,0.00,WUHU216HW,2013-05-28 20:20:00,
2013-05-28 13:25:00,95.8,30.6,29.72,WSW,248,8.9,10.5,5,0.00,,,0.00,WUHU216HW,2013-05-28 20:25:00,
2013-05-28 13:30:00,94.7,29.8,29.72,West,270,5.8,9.2,6,0.00,,,0.00,WUHU216HW,2013-05-28 20:30:00,
2013-05-28 13:35:00,94.5,29.6,29.72,NNW,338,2.0,9.2,6,0.00,,,0.00,WUHU216HW,2013-05-28 20:35:00,
2013-05-28 13:40:00,94.3,29.5,29.72,NNW,338,6.9,8.7,6,0.00,,,0.00,WUHU216HW,2013-05-28 20:40:00,
2013-05-28 13:45:00,94.1,29.3,29.73,WNW,293,9.6,11.6,6,0.00,,,0.00,WUHU216HW,2013-05-28 20:45:00,
2013-05-28 13:50:00,94.5,29.6,29.73,SSE,158,2.9,14.3,6,0.00,,,0.00,WUHU216HW,2013-05-28 20:50:00,
2013-05-28 13:55:00,95.4,30.3,29.73,WSW,248,6.3,14.3,6,0.00,,,0.00,WUHU216HW,2013-05-28 20:55:00,
2013-05-28 14:00:00,95.4,30.3,29.74,WSW,248,4.0,11.4,5,0.00,,,0.00,WUHU216HW,2013-05-28 21:00:00,
2013-05-28 14:05:00,95.8,30.6,29.73,WNW,293,4.9,11.4,6,0.00,,,0.00,WUHU216HW,2013-05-28 21:05:00,
2013-05-28 14:10:00,95.8,30.6,29.73,WNW,293,6.7,12.1,5,0.00,,,0.00,WUHU216HW,2013-05-28 21:10:00,
2013-05-28 14:15:00,94.3,29.5,29.72,West,270,4.5,12.1,5,0.00,,,0.00,WUHU216HW,2013-05-28 21:15:00,
2013-05-28 14:20:00,93.8,29.1,29.72,WNW,293,7.6,10.3,6,0.00,,,0.00,WUHU216HW,2013-05-28 21:20:00,
2013-05-28 14:25:00,93.8,29.1,29.72,NW,315,5.1,10.5,6,0.00,,,0.00,WUHU216HW,2013-05-28 21:25:00,
2013-05-28 14:30:00,94.0,29.2,29.72,WSW,248,7.2,10.5,6,0.00,,,0.00,WUHU216HW,2013-05-28 21:30:00,
2013-05-28 14:35:00,93.8,29.1,29.72,WNW,293,6.3,11.2,6,0.00,,,0.00,WUHU216HW,2013-05-28 21:35:00,
2013-05-28 14:40:00,92.9,28.4,29.72,North,0,3.8,11.4,6,0.00,,,0.00,WUHU216HW,2013-05-28 21:40:00,
2013-05-28 14:45:00,92.3,28.0,29.72,WSW,248,12.8,12.8,6,0.00,,,0.00,WUHU216HW,2013-05-28 21:45:00,
2013-05-28 14:50:00,93.1,28.5,29.72,NNW,338,6.3,12.8,6,0.00,,,0.00,WUHU216HW,2013-05-28 21:50:00,
2013-05-28 14:55:00,93.4,28.8,29.72,WNW,293,11.4,16.8,6,0.00,,,0.00,WUHU216HW,2013-05-28 21:55:00,
2013-05-28 15:00:00,93.2,28.6,29.72,North,0,1.6,16.8,6,0.00,,,0.00,WUHU216HW,2013-05-28 22:00:00,
2013-05-28 15:05:00,93.1,28.5,29.72,NW,315,3.1,11.9,6,0.00,,,0.00,WUHU216HW,2013-05-28 22:05:00,
2013-05-28 15:10:00,93.2,28.6,29.72,NW,315,4.0,14.8,6,0.00,,,0.00,WUHU216HW,2013-05-28 22:10:00,
2013-05-28 15:15:00,93.8,29.1,29.72,WSW,248,5.6,14.8,6,0.00,,,0.00,WUHU216HW,2013-05-28 22:15:00,
2013-05-28 15:20:00,94.1,29.3,29.72,WSW,248,13.4,15.7,6,0.00,,,0.00,WUHU216HW,2013-05-28 22:20:00,
2013-05-28 15:25:00,94.1,29.3,29.72,West,270,10.5,16.3,6,0.00,,,0.00,WUHU216HW,2013-05-28 22:25:00,
2013-05-28 15:30:00,94.7,29.8,29.71,WSW,248,4.7,16.3,6,0.00,,,0.00,WUHU216HW,2013-05-28 22:30:00,
2013-05-28 15:35:00,94.9,29.9,29.70,NNW,338,11.9,15.2,6,0.00,,,0.00,WUHU216HW,2013-05-28 22:35:00,
2013-05-28 15:40:00,94.3,29.5,29.70,WSW,248,12.3,16.1,6,0.00,,,0.00,WUHU216HW,2013-05-28 22:40:00,
2013-05-28 15:45:00,94.0,29.2,29.70,West,270,7.6,16.1,6,0.00,,,0.00,WUHU216HW,2013-05-28 22:45:00,
2013-05-28 15:50:00,94.1,29.3,29.69,NNW,338,6.5,15.0,6,0.00,,,0.00,WUHU216HW,2013-05-28 22:50:00,
2013-05-28 15:55:00,94.1,29.3,29.69,WNW,293,6.7,11.4,6,0.00,,,0.00,WUHU216HW,2013-05-28 22:55:00,
2013-05-28 16:00:00,94.3,29.5,29.69,WSW,248,6.3,9.8,6,0.00,,,0.00,WUHU216HW,2013-05-28 23:00:00,
2013-05-28 16:05:00,94.5,29.6,29.69,WSW,248,4.5,9.8,6,0.00,,,0.00,WUHU216HW,2013-05-28 23:05:00,
2013-05-28 16:10:00,94.7,29.8,29.69,West,270,8.5,12.8,6,0.00,,,0.00,WUHU216HW,2013-05-28 23:10:00,
2013-05-28 16:15:00,94.7,29.8,29.69,SSW,203,11.6,16.3,6,0.00,,,0.00,WUHU216HW,2013-05-28 23:15:00,
2013-05-28 16:20:00,94.0,29.2,29.69,West,270,9.8,16.3,6,0.00,,,0.00,WUHU216HW,2013-05-28 23:20:00,
2013-05-28 16:25:00,94.0,29.2,29.70,WNW,293,10.7,15.0,6,0.00,,,0.00,WUHU216HW,2013-05-28 23:25:00,
2013-05-28 16:30:00,95.0,30.1,29.69,WSW,248,18.6,18.6,6,0.00,,,0.00,WUHU216HW,2013-05-28 23:30:00,
2013-05-28 16:35:00,94.1,29.3,29.69,WSW,248,6.7,18.6,6,0.00,,,0.00,WUHU216HW,2013-05-28 23:35:00,
2013-05-28 16:40:00,94.1,29.3,29.69,West,270,14.3,18.6,6,0.00,,,0.00,WUHU216HW,2013-05-28 23:40:00,
2013-05-28 16:45:00,94.0,29.2,29.69,SW,225,8.5,14.3,6,0.00,,,0.00,WUHU216HW,2013-05-28 23:45:00,
2013-05-28 16:50:00,94.0,29.2,29.69,SW,225,9.8,14.3,6,0.00,,,0.00,WUHU216HW,2013-05-28 23:50:00,
2013-05-28 16:55:00,93.6,28.9,29.69,WNW,293,10.5,15.0,6,0.00,,,0.00,WUHU216HW,2013-05-28 23:55:00,
2013-05-28 17:00:00,93.6,28.9,29.68,WSW,248,12.5,15.0,6,0.00,,,0.00,WUHU216HW,2013-05-29 00:00:00,
2013-05-28 17:05:00,93.8,29.1,29.68,West,270,14.3,15.0,6,0.00,,,0.00,WUHU216HW,2013-05-29 00:05:00,
2013-05-28 17:10:00,93.8,29.1,29.68,West,270,9.2,15.2,6,0.00,,,0.00,WUHU216HW,2013-05-29 00:10:00,
2013-05-28 17:15:00,94.0,29.2,29.68,West,270,12.8,15.2,6,0.00,,,0.00,WUHU216HW,2013-05-29 00:15:00,
2013-05-28 17:20:00,94.5,29.6,29.68,SSW,203,7.2,13.0,6,0.00,,,0.00,WUHU216HW,2013-05-29 00:20:00,
2013-05-28 17:25:00,94.5,29.6,29.68,SW,225,8.5,15.4,6,0.00,,,0.00,WUHU216HW,2013-05-29 00:25:00,
2013-05-28 17:30:00,94.3,29.5,29.69,WSW,248,9.8,15.4,6,0.00,,,0.00,WUHU216HW,2013-05-29 00:30:00,
2013-05-28 17:35:00,94.3,29.5,29.69,WNW,293,8.9,15.0,6,0.00,,,0.00,WUHU216HW,2013-05-29 00:35:00,
2013-05-28 17:40:00,94.0,29.2,29.70,SSW,203,6.0,15.0,6,0.00,,,0.00,WUHU216HW,2013-05-29 00:40:00,
2013-05-28 17:45:00,94.3,29.5,29.70,SW,225,4.7,11.9,6,0.00,,,0.00,WUHU216HW,2013-05-29 00:45:00,
2013-05-28 17:50:00,94.5,29.6,29.70,WSW,248,7.8,11.9,6,0.00,,,0.00,WUHU216HW,2013-05-29 00:50:00,
2013-05-28 17:55:00,94.5,29.6,29.70,WSW,248,11.9,11.9,6,0.00,,,0.00,WUHU216HW,2013-05-29 00:55:00,
2013-05-28 18:00:00,94.7,29.8,29.69,WNW,293,9.2,11.9,7,0.00,,,0.00,WUHU216HW,2013-05-29 01:00:00,
2013-05-28 18:05:00,95.0,30.1,29.69,West,270,5.8,11.9,7,0.00,,,0.00,WUHU216HW,2013-05-29 01:05:00,
2013-05-28 18:10:00,95.8,30.6,29.68,WNW,293,4.5,9.4,7,0.00,,,0.00,WUHU216HW,2013-05-29 01:10:00,
2013-05-28 18:15:00,95.6,30.4,29.68,SW,225,5.8,12.1,7,0.00,,,0.00,WUHU216HW,2013-05-29 01:15:00,
2013-05-28 18:20:00,94.9,29.9,29.68,West,270,9.6,12.8,7,0.00,,,0.00,WUHU216HW,2013-05-29 01:20:00,
2013-05-28 18:25:00,94.0,29.2,29.68,West,270,8.5,12.8,7,0.00,,,0.00,WUHU216HW,2013-05-29 01:25:00,
2013-05-28 18:30:00,93.2,28.6,29.68,West,270,8.1,13.4,8,0.00,,,0.00,WUHU216HW,2013-05-29 01:30:00,
2013-05-28 18:35:00,92.9,28.4,29.68,West,270,9.8,13.4,8,0.00,,,0.00,WUHU216HW,2013-05-29 01:35:00,
2013-05-28 18:40:00,92.2,27.9,29.69,West,270,9.2,14.1,9,0.00,,,0.00,WUHU216HW,2013-05-29 01:40:00,
2013-05-28 18:45:00,91.4,27.4,29.69,West,270,13.2,16.6,9,0.00,,,0.00,WUHU216HW,2013-05-29 01:45:00,
2013-05-28 18:50:00,90.7,26.8,29.69,West,270,18.3,18.3,10,0.00,,,0.00,WUHU216HW,2013-05-29 01:50:00,
2013-05-28 18:55:00,90.2,26.4,29.70,West,270,13.0,18.3,10,0.00,,,0.00,WUHU216HW,2013-05-29 01:55:00,
2013-05-28 19:00:00,89.6,27.6,29.70,West,270,10.7,18.3,11,0.00,,,0.00,WUHU216HW,2013-05-29 02:00:00,
2013-05-28 19:05:00,88.9,27.2,29.70,NNW,338,11.4,15.7,11,0.00,,,0.00,WUHU216HW,2013-05-29 02:05:00,
2013-05-28 19:10:00,87.7,28.0,29.70,WSW,248,12.5,15.7,12,0.00,,,0.00,WUHU216HW,2013-05-29 02:10:00,
2013-05-28 19:15:00,86.4,28.6,29.70,WNW,293,11.9,16.6,13,0.00,,,0.00,WUHU216HW,2013-05-29 02:15:00,
2013-05-28 19:20:00,85.7,28.1,29.69,West,270,15.0,16.6,13,0.00,,,0.00,WUHU216HW,2013-05-29 02:20:00,
2013-05-28 19:25:00,85.0,27.5,29.69,WSW,248,12.3,15.9,13,0.00,,,0.00,WUHU216HW,2013-05-29 02:25:00,
2013-05-28 19:30:00,84.6,27.2,29.69,WSW,248,10.1,15.9,13,0.00,,,0.00,WUHU216HW,2013-05-29 02:30:00,
2013-05-28 19:35:00,84.1,26.8,29.69,WSW,248,11.4,15.0,13,0.00,,,0.00,WUHU216HW,2013-05-29 02:35:00,
2013-05-28 19:40:00,83.7,26.6,29.70,NW,315,9.2,13.4,13,0.00,,,0.00,WUHU216HW,2013-05-29 02:40:00,
2013-05-28 19:45:00,83.2,29.5,29.70,West,270,12.1,16.3,15,0.00,,,0.00,WUHU216HW,2013-05-29 02:45:00,
2013-05-28 19:50:00,82.8,29.3,29.71,WNW,293,8.9,16.3,15,0.00,,,0.00,WUHU216HW,2013-05-29 02:50:00,
2013-05-28 19:55:00,82.4,29.0,29.71,West,270,11.2,16.1,15,0.00,,,0.00,WUHU216HW,2013-05-29 02:55:00,
2013-05-28 20:00:00,82.1,28.7,29.72,West,270,10.3,15.0,15,0.00,,,0.00,WUHU216HW,2013-05-29 03:00:00,
2013-05-28 20:05:00,81.9,28.5,29.72,NW,315,5.8,15.0,15,0.00,,,0.00,WUHU216HW,2013-05-29 03:05:00,
2013-05-28 20:10:00,81.5,30.0,29.72,WNW,293,9.8,12.8,16,0.00,,,0.00,WUHU216HW,2013-05-29 03:10:00,
2013-05-28 20:15:00,81.4,29.8,29.73,WNW,293,11.2,12.8,16,0.00,,,0.00,WUHU216HW,2013-05-29 03:15:00,
2013-05-28 20:20:00,81.0,29.5,29.73,West,270,7.8,11.6,16,0.00,,,0.00,WUHU216HW,2013-05-29 03:20:00,
2013-05-28 20:25:00,80.8,29.3,29.74,NW,315,6.9,11.6,16,0.00,,,0.00,WUHU216HW,2013-05-29 03:25:00,
2013-05-28 20:30:00,80.5,32.5,29.74,WNW,293,6.7,13.2,18,0.00,,,0.00,WUHU216HW,2013-05-29 03:30:00,
2013-05-28 20:35:00,80.3,32.3,29.75,NW,315,4.7,13.2,18,0.00,,,0.00,WUHU216HW,2013-05-29 03:35:00,
2013-05-28 20:40:00,79.9,32.0,29.75,WNW,293,8.3,11.4,18,0.00,,,0.00,WUHU216HW,2013-05-29 03:40:00,
2013-05-28 20:45:00,79.7,31.9,29.74,West,270,5.4,11.4,18,0.00,,,0.00,WUHU216HW,2013-05-29 03:45:00,
2013-05-28 20:50:00,79.6,31.7,29.74,NW,315,8.5,8.5,18,0.00,,,0.00,WUHU216HW,2013-05-29 03:50:00,
2013-05-28 20:55:00,79.4,33.2,29.74,NW,315,6.9,10.7,19,0.00,,,0.00,WUHU216HW,2013-05-29 03:55:00,
2013-05-28 21:00:00,79.2,31.3,29.74,NNW,338,6.0,11.4,18,0.00,,,0.00,WUHU216HW,2013-05-29 04:00:00,
2013-05-28 21:01:00,79.2,31.3,29.74,NNW,338,6.0,11.4,18,0.00,,,0.00,WUHU216HW,2013-05-29 04:01:00,
2013-05-28 21:06:00,78.8,32.7,29.73,WNW,293,6.9,11.4,19,0.00,,,0.00,WUHU216HW,2013-05-29 04:06:00,
2013-05-28 21:11:00,78.8,32.7,29.74,West,270,6.9,11.0,19,0.00,,,0.00,WUHU216HW,2013-05-29 04:11:00,
2013-05-28 21:16:00,78.7,32.6,29.74,West,270,6.7,10.7,19,0.00,,,0.00,WUHU216HW,2013-05-29 04:16:00,
2013-05-28 21:21:00,78.5,32.4,29.74,NW,315,4.0,10.7,19,0.00,,,0.00,WUHU216HW,2013-05-29 04:21:00,
2013-05-28 21:26:00,78.1,32.1,29.75,NNW,338,6.9,8.3,19,0.00,,,0.00,WUHU216HW,2013-05-29 04:26:00,
2013-05-28 21:31:00,77.9,32.0,29.75,NNW,338,7.6,8.5,19,0.00,,,0.00,WUHU216HW,2013-05-29 04:31:00,
2013-05-28 21:36:00,77.9,32.0,29.75,NW,315,6.9,8.9,19,0.00,,,0.00,WUHU216HW,2013-05-29 04:36:00,
2013-05-28 21:41:00,77.9,32.0,29.75,NW,315,6.3,9.2,19,0.00,,,0.00,WUHU216HW,2013-05-29 04:41:00,
2013-05-28 21:46:00,77.9,32.0,29.75,NW,315,4.5,9.2,19,0.00,,,0.00,WUHU216HW,2013-05-29 04:46:00,
2013-05-28 21:51:00,77.9,32.0,29.75,NNW,338,9.6,11.4,19,0.00,,,0.00,WUHU216HW,2013-05-29 04:51:00,
2013-05-28 21:56:00,77.9,32.0,29.75,NNW,338,8.5,11.4,19,0.00,,,0.00,WUHU216HW,2013-05-29 04:56:00,
2013-05-28 22:01:00,77.9,32.0,29.76,North,0,3.8,10.5,19,0.00,,,0.00,WUHU216HW,2013-05-29 05:01:00,
2013-05-28 22:06:00,77.8,31.9,29.76,NW,315,4.9,10.5,19,0.00,,,0.00,WUHU216HW,2013-05-29 05:06:00,
2013-05-28 22:11:00,77.8,31.9,29.76,NW,315,5.6,9.2,19,0.00,,,0.00,WUHU216HW,2013-05-29 05:11:00,
2013-05-28 22:16:00,77.8,31.9,29.76,North,0,7.8,9.2,19,0.00,,,0.00,WUHU216HW,2013-05-29 05:16:00,
2013-05-28 22:21:00,77.6,31.7,29.75,West,270,6.9,10.7,19,0.00,,,0.00,WUHU216HW,2013-05-29 05:21:00,
2013-05-28 22:26:00,77.4,31.6,29.75,WNW,293,5.4,10.7,19,0.00,,,0.00,WUHU216HW,2013-05-29 05:26:00,
2013-05-28 22:31:00,77.2,31.4,29.75,WNW,293,3.4,8.9,19,0.00,,,0.00,WUHU216HW,2013-05-29 05:31:00,
2013-05-28 22:36:00,77.0,31.3,29.75,West,270,9.2,10.5,19,0.00,,,0.00,WUHU216HW,2013-05-29 05:36:00,
2013-05-28 22:41:00,76.9,31.1,29.76,WNW,293,6.3,10.5,19,0.00,,,0.00,WUHU216HW,2013-05-29 05:41:00,
2013-05-28 22:46:00,76.7,31.0,29.76,NW,315,8.1,9.2,19,0.00,,,0.00,WUHU216HW,2013-05-29 05:46:00,
2013-05-28 22:51:00,76.5,30.9,29.76,WNW,293,3.1,8.9,19,0.00,,,0.00,WUHU216HW,2013-05-29 05:51:00,
2013-05-28 22:56:00,76.3,30.7,29.77,NW,315,4.7,7.2,19,0.00,,,0.00,WUHU216HW,2013-05-29 05:56:00,
2013-05-28 23:01:00,76.1,30.6,29.77,WNW,293,4.7,6.5,19,0.00,,,0.00,WUHU216HW,2013-05-29 06:01:00,
2013-05-28 23:06:00,76.0,32.0,29.77,NW,315,2.5,7.4,20,0.00,,,0.00,WUHU216HW,2013-05-29 06:06:00,
2013-05-28 23:11:00,75.8,32.0,29.77,NW,315,4.7,7.4,20,0.00,,,0.00,WUHU216HW,2013-05-29 06:11:00,
2013-05-28 23:16:00,75.6,32.9,29.77,West,270,6.3,7.2,21,0.00,,,0.00,WUHU216HW,2013-05-29 06:16:00,
2013-05-28 23:21:00,75.4,32.7,29.77,NW,315,4.5,7.4,21,0.00,,,0.00,WUHU216HW,2013-05-29 06:21:00,
2013-05-28 23:26:00,75.2,32.5,29.77,NW,315,5.4,7.4,21,0.00,,,0.00,WUHU216HW,2013-05-29 06:26:00,
2013-05-28 23:31:00,75.2,32.5,29.77,NW,315,6.0,7.6,21,0.00,,,0.00,WUHU216HW,2013-05-29 06:31:00,
2013-05-28 23:36:00,75.1,32.4,29.76,NW,315,5.4,7.6,21,0.00,,,0.00,WUHU216HW,2013-05-29 06:36:00,
2013-05-28 23:41:00,74.9,32.2,29.76,NW,315,5.6,6.5,21,0.00,,,0.00,WUHU216HW,2013-05-29 06:41:00,
2013-05-28 23:46:00,74.7,32.1,29.76,NNW,338,3.8,6.5,21,0.00,,,0.00,WUHU216HW,2013-05-29 06:46:00,
2013-05-28 23:51:00,74.5,32.0,29.77,NW,315,4.5,5.8,21,0.00,,,0.00,WUHU216HW,2013-05-29 06:51:00,
2013-05-28 23:56:00,74.5,32.0,29.77,NW,315,2.9,5.8,21,0.00,,,0.00,WUHU216HW,2013-05-29 06:56:00,